www.pogodaiklimat.ru

Погода и климат >> Архив погоды >> Россия >> Камчатский край >> Мыс Лопатка


ПОГОДА на Мысе Лопатка

  • Прогноз погоды на Мысе Лопатка
  • Монитор погоды на Мысе Лопатка

АРХИВ ПОГОДЫ на Мысе Лопатка

Время (UTC), дата Ветер
(напр.,м/с)
 
Видим.   Явления Облачность Т
(С)
Тd
(С)
f
(%)
Тe
(С)
Тes
(С)
Комфортность P
(гПа)
Po
(гПа)
Тmin
(С)
Tmax
(С)
R
(мм)
R24
(мм)
S
(см)
06 9.01 СЗ 11-15
{18}
20 км позёмок 9/8 600 м
[Sc]
-6.1 -7.7 88 -16 -16 995.4 988.7
09 9.01 СЗ 10-15
{18}
20 км {метель} 3/3 600 м
[Sc Ci fib]
-6.2 -9.0 81 -16 -16 995.8 989.4 -4.4
18 9.01 З 5
{12}
4000 м слаб. ливневой снег 9/9 600 м
[Cb cap]
-7.5 -9.6 85 -15 -15 996.0 989.6
21 9.01 С 4 20 км {ливн. осадки} 3/3 600 м
[Sc]
-8.2 -11.0 80 -15 -15 995.9 989.5 -8.4 0.5 24
00 10.01 Ю 1 50 км {ливн. осадки} 8/1 600 м
[Sc Ci fib]
-7.3 -13.5 61 -9 -8 995.7 989.3
03 10.01 Ю 3 50 км 9/3 600 м
[Sc Ci sp]
-6.4 -14.2 54 -12 -11 993.7 987.3
06 10.01 Ю 4 20 км 9/5 600 м
[Cb cap Ac trans Ci sp]
-6.7 -13.5 58 -13 -13 993.7 987.3
09 10.01 ЮЗ 5
{11}
2000 м ливневой снег {метель} 10/10 300 м
[Cb cap]
-8.4 -10.0 88 -16 -16 993.8 987.3 -5.2 0.0
12 10.01 З 4 20 км {ливн. осадки, метель} ясно -7.7 -13.2 65 -14 -14 993.5 987.0
15 10.01 Ю 2 20 км ясно -7.5 -16.2 50 -12 -12 993.5 987.1
18 10.01 З 5 20 км 1/1 600 м
[Sc]
-7.3 -10.7 77 -15 -15 993.6 987.2
21 10.01 В 1 50 км 3/1 600 м
[Sc Ci fib]
-7.3 -10.7 77 -10 -10 993.9 987.5 -8.6 0.0 24
00 11.01 В 4 20 км 3/1 600 м
[Sc Ci sp]
-6.4 -12.1 64 -13 -12 993.9 987.5
03 11.01 В 6 50 км 1/1 600 м
[Sc]
-7.5 -11.3 74 -16 -15 992.8 986.4
06 11.01 С 3 50 км 8/3 600 м
[Sc Ci sp]
-7.6 -11.2 75 -13 -13 992.8 986.4
09 11.01 С 14-16
{16}
20 км сильный позёмок 9/3 600 м
[Sc Ci sp]
-5.9 -9.8 74 -17 -17 990.8 984.5 -5.5
12 11.01 С 17-20
{21}
2000 м слаб. ливневой снег {метель} 10/10 300 м
[Cb cap]
-5.8 -6.7 93 -18 -18 988.4 982.1
15 11.01 С 14-17
{21}
20 км позёмок {ливн. осадки} 8/8 600 м
[Cb calv]
-3.8 -5.7 87 -14 -14 987.0 980.7
18 11.01 С 13-15
{17}
20 км {ливн. осадки, метель} 10/10 600 м
[Sc]
-2.2 -5.0 81 -12 -12 986.8 980.6
21 11.01 С 13-16
{18}
20 км 10/10 600 м
[Sc]
-0.9 -3.9 80 -10 -10 986.9 980.7 -6.2 0.2 25
00 12.01 С 14-17
{22}
20 км 10/3 600 м
[Sc Ac As]
-0.8 -5.0 73 -10 -10 986.8 980.6
03 12.01 С 6
{17}
20 км 10/1 600 м
[Sc Ac As]
-0.4 -3.1 82 -7 -7 988.1 981.9
06 12.01 С 7-11
{11}
20 км 9/3 600 м
[Sc Ac As Ci sp]
+0.6 -3.8 72 -6 -6 990.8 984.6
09 12.01 С 8-10
{14}
20 км 10/1 600 м
[Sc Ac As Ci sp]
+1.1 -3.9 69 -6 -6 993.1 986.9 +1.4
12 12.01 С 5
{10}
20 км 10/0
[Ac As]
+0.3 -3.0 78 -6 -6 995.3 989.1
15 12.01 СВ 6 20 км 10/0
[Ac As]
+1.3 -4.2 67 -5 -5 997.4 991.2
18 12.01 СВ 6
{10}
20 км 10/0
[Ac As]
+1.0 -4.5 67 -5 -5 1000.3 994.1
21 12.01 В 6
{15}
20 км слаб. снег 10/3 300 м
[Frnb Ac As]
-0.1 -3.7 77 -7 -7 1003.4 997.1 -0.1 0.0 24
00 13.01 В 6
{15}
50 км {снег} 9/8 600 м
[Sc Ci sp]
-0.1 -3.5 78 -7 -7 1005.6 999.3 -0.3
03 13.01 В 7-10
{14}
50 км 9/1 600 м
[Sc Ac trans Ci sp]
+0.6 -6.0 61 -6 -6 1006.1 999.8
06 13.01 В 5
{10}
50 км 9/4 600 м
[Sc Ac trans Ci sp]
-1.1 -6.3 68 -7 -7 1008.5 1002.2
09 13.01 СВ 5 20 км 9/8 600 м
[Sc Ac trans Ci sp]
-0.7 -4.9 73 -7 -7 1009.6 1003.3 +0.6 0.0
12 13.01 СВ 2 20 км 8/1 1000 м
[Sc Ac trans Ci sp]
-1.7 -8.0 62 -5 -5 1010.4 1004.1
15 13.01 В 2 20 км 9/3 600 м
[Sc Ac trans Ci sp]
-2.3 -5.9 76 -6 -6 1010.9 1004.6
18 13.01 Ю 3 4000 м слаб. ливневой снег 9/9 300 м
[Cb cap]
-1.3 -4.7 78 -6 -6 1011.1 1004.8
21 13.01 ЮЗ 6 4000 м слаб. ливневой снег 10/10 300 м
[Cb cap]
-1.4 -2.5 92 -9 -9 1011.4 1005.0 -2.9 0.0 24
00 14.01 З 5 4000 м слаб. ливневой снег 10/10 300 м
[Cb cap]
-1.2 -1.4 99 -8 -8 1011.9 1005.5
03 14.01 СЗ 6 10 км слаб. ливневой снег 10/10 300 м
[Cb cap]
-1.3 -1.7 97 -8 -8 1010.9 1004.6
06 14.01 СЗ 9-11
{11}
20 км {ливн. осадки} 8/4 600 м
[Sc Ac trans]
-1.1 -3.4 84 -9 -9 1011.4 1005.0
09 14.01 СЗ 12-15
{15}
20 км сильный позёмок 3/1 600 м
[Sc Ac trans]
-2.1 -2.8 95 -12 -12 1011.7 1005.3 -0.7 1
12 14.01 СЗ 10-12
{15}
20 км {метель} 6/3 600 м
[Sc Ac trans]
-1.6 -5.7 74 -10 -10 1012.5 1006.1
15 14.01 СЗ 9-11
{14}
4000 м слаб. ливневой снег {метель} 10/10 300 м
[Cb cap]
-2.9 -3.3 97 -12 -12 1012.4 1006.0
18 14.01 С 10-13
{14}
20 км позёмок {ливн. осадки} 3/3 600 м
[Sc]
-4.2 -5.8 89 -14 -14 1012.8 1006.3
21 14.01 С 11-13
{13}
50 км позёмок 3/1 600 м
[Sc Ci fib]
-4.1 -6.9 81 -14 -14 1013.4 1006.9 -4.3 0.2 25
00 15.01 С 10-12
{14}
50 км позёмок 3/1 600 м
[Sc Ci sp]
-3.9 -8.7 69 -13 -13 1014.4 1007.9
03 15.01 С 11-13
{13}
50 км позёмок 3/1 600 м
[Sc Ac trans]
-4.0 -9.7 64 -13 -13 1013.8 1007.3
06 15.01 С 10-11
{13}
50 км позёмок 3/3 600 м
[Sc]
-4.6 -9.8 67 -14 -14 1014.6 1008.1
09 15.01 СЗ 7
{11}
20 км {метель} 1/1 600 м
[Sc]
-4.4 -9.3 69 -12 -12 1015.6 1009.1 -3.8
12 15.01 СЗ 7
{11}
20 км {метель} 1/1 600 м
[Sc]
-4.4 -9.3 69 -12 -12 1015.6 1009.1 -3.8
15 15.01 СЗ 4 20 км {метель} 1/1 600 м
[Sc]
-5.0 -9.7 70 -11 -11 1016.1 1009.6
18 15.01 З 2 20 км 8/8 600 м
[Sc]
-3.9 -7.8 74 -8 -8 1016.4 1009.9
21 15.01 Ю 3 20 км 9/8 600 м
[Sc Ac trans]
-2.9 -8.2 67 -8 -8 1015.7 1009.2 -5.2 25
00 16.01 Ю 7 20 км в посл. час ливневой снег 5/3 600 м
[Sc diur, vesp Ci fib]
-2.7 -7.3 71 -10 -10 1014.2 1007.8

 

Местоположение метеостанции Мыс Лопатка (Камчатский край, Россия): широта 50.87 долгота 156.60 высота над уровнем моря 50 м.

В архиве по умолчанию представлена погода на Мысе Лопатка за последнюю неделю. Архивные данные за месяц целиком и за предыдущие месяцы, начиная с января 2011 года, Вы можете получить, выбрав интересующий диапазон дат из раскрывающегося списка и нажав кнопку "Ввод!".


*Определитесь, кто Вы:
робот инопланетянин человек

Внимание! Время в таблицах - всемирное. Для получения местного времени необходимо прибавить поправку, которая равна 12 ч.

Смотрите также архив погоды в соседних городах и на ближайших метеорологических станциях:

Погода в Северо-Курильске (Сахалинская область, Россия) (41 км)
Погода в Озерной (Камчатский край, Россия) (69 км)
Погода в Водопадной (Камчатский край, Россия) (144 км)
Погода в Большерецке (Камчатский край, Россия) (219 км)
Погода в Начиках (Камчатский край, Россия) (261 км)
Погода в Петропавловск-Камчатском (Камчатский край, Россия) (261 км)
Погода в Петропавловском Маяке (Камчатский край, Россия) (266 км)
Погода в Сосновке (Камчатский край, Россия) (272 км)
Погода в Петропавловск-Камч. 2 (Камчатский край, Россия) (278 км)
Погода в Пущино (Камчатский край, Россия) (380 км)

Пояснения к столбцам:

Ветер - указаны скорость ветра в м/с - средняя за 10 мин, порывы в срок и между сроками (в фигурных скобках) и направление, откуда дует ветер: С - северный, СВ - северо-восточный, В - восточный, ЮВ - юго-восточный, Ю - южный, ЮЗ - юго-западный, З - западный, СЗ - северо-западный.
Видимость - горизонтальная дальность видимости в метрах или километрах. При видимости от 1 до 10 км при отсутствии осадков обычно наблюдается дымка, при ухудшении видимости до 1 км и менее - туман. В сухую погоду видимость может ухудшаться дымом, пылью или мглою.
Явления - указаны атмосферные явления, наблюдавшиеся в срок или в последний час перед сроком; фигурными скобками обозначены явления, наблюдавшиеся между сроками (за 1-3 часа до срока); квадратными скобками обозначены град или гололедные отложения с указанием их диаметра в мм.
Облачность - указаны через наклонную черту общая и нижняя облачность в баллах и высота нижней границы облаков в метрах; квадратными скобками обозначены формы облаков: Ci - перистые, Cs - перисто-слоистые, Cc - перисто-кучевые, Ac - высококучевые, As - высокослоистые, Sc - слоисто-кучевые, Ns - слоисто-дождевые, Cu - кучевые, Cb - кучево-дождевые. Подробнее классификацию облаков см. в Атласе облаков (PDF).
T - Температура воздуха - температура, измеренная на высоте 2 м над землей.
Td - Температура точки росы - температура, при понижении до которой содержащийся в воздухе водяной пар достигнет насыщения.
f - Относительная влажность воздуха - влажноcть воздуха, измеренная на высоте 2 м над землей.
Te - Эффективная температура - температура, которую ощущает одетый по сезону человек в тени. Характеристика душности погоды. При расчете учитывается влияние влажности воздуха и скорости ветра на теплоощущения человека.
Tes - Эффективная температура на солнце - температура, которую ощущает человек, с поправкой на солнечный нагрев. Характеристика знойности погоды. Зависит от высоты солнца над горизонтом, облачности и скорости ветра. Ночью, в пасмурную погоду, а также при ветре 12 м/с и более поправка равна нулю.
P - Атмосферное давление - приведенное к уровню моря атмосферное давление.
Po - Атмосферное давление - измеренное на уровне метеостанции атмосферное давление.
Tmin - Минимальная температура - минимум температуры воздуха на высоте 2 м над землей.
Tmax - Максимальная температура - максимум температуры воздуха на высоте 2 м над землей.
R - Количество осадков - Количество выпавших осадков за период времени, мм. При наведении курсора мыши на число - период времени, за который выпало указанное количество осадков.
R24 - Количество осадков - Количество выпавших осадков за 24 часа, мм.
S - Снежный покров - Высота снежного покрова, см. При наведении курсора мыши на число - состояние снежного покрова и степень покрытия местности в баллах.